Regional Weather Roundup
Issued by NWS

Home | Current Version | Previous Version | Text Only | Print | Product List | Glossary On
Versions: 1 2 3 4 5 6 7 8 9 10 11 12 13 14 15 16 17 18 19 20 21 22 23 24 25 26 27 28 29 30 31 32 33 34 35 36 37 38 39 40 41 42 43 44 45 46 47 48 49 50
000
ASUS44 KLIX 220006
RWRLA
LOUISIANA WEATHER ROUNDUP
NATIONAL WEATHER SERVICE NEW ORLEANS LA
700 PM CDT TUE MAY 21 2019

NOTE: "FAIR" INDICATES FEW OR NO CLOUDS BELOW 12,000 FEET WITH NO
      SIGNIFICANT WEATHER AND/OR OBSTRUCTIONS TO VISIBILITY.
      SKY/WX - SKY CONDITION AND SIGNIFICANT WEATHER.
      TMP - AIR TEMPERATURE.    DP   - DEWPOINT TEMPERATURE.
      RH  - RELATIVE HUMIDITY.  PRES - PRESSURE.
      HX  - HEAT INDEX.         WCI  - WIND CHILL INDEX.

*  THESE STATIONS ARE NOT NWS OR FAA STATIONS AND ARE NOT UNDER
   NWS QUALITY CONTROL.

LAZ040-048-061>063-065-066-069-220100-
SOUTHEAST LOUISIANA

CITY           SKY/WX    TMP DP  RH WIND       PRES   REMARKS
N.O. INTL ARPT FAIR      84  71  65 S14       29.84R
6HR MIN TEMP:  84; 6HR MAX TEMP:  89;

N.O. LAKEFRONT FAIR      83  71  67 S14       29.85S
6HR MIN TEMP:  83; 6HR MAX TEMP:  88;

N.O. DOWNTOWN* MOCLDY    84  72  67 S15G22    29.86S
6HR MIN TEMP:  84; 6HR MAX TEMP:  89;

RESERVE*       MOCLDY    85  72  66 S18       29.84S
6HR MIN TEMP:  84; 6HR MAX TEMP:  89;

SLIDELL        FAIR      84  70  62 S10       29.85S
6HR MIN TEMP:  84; 6HR MAX TEMP:  89;

BATON ROUGE    FAIR      84  70  62 S18G24    29.79S
6HR MIN TEMP:  84; 6HR MAX TEMP:  90;

BOOTHVILLE     FAIR      80  73  79 SE9       29.87S
6HR MIN TEMP:  80; 6HR MAX TEMP:  84;

BELLE CHASSE   FAIR      82  74  76 S10G22    29.85S
6HR MIN TEMP:  82; 6HR MAX TEMP:  87;

BOGALUSA*      NOT AVBL
GALLIANO*      MOCLDY    81  71  71 S8G16     29.85S
6HR MIN TEMP:  81; 6HR MAX TEMP:  85;

NEW ROADS*     FAIR      82  72  69 S10G16    29.79S
GONZALES*      FAIR      83  71  66 S10       29.80F
6HR MIN TEMP:  83; 6HR MAX TEMP:  89;

HAMMOND*       FAIR      82  72  69 S10       29.84S
HOUMA*         MOCLDY    81  74  79 S12G17    29.84S
6HR MIN TEMP:  81; 6HR MAX TEMP:  85;

PORT FOURCHON* PTCLDY    81  77  89 SE16      29.84F

$$

LAZ041-044-053-054-220100-
SOUTHWEST LOUISIANA

CITY           SKY/WX    TMP DP  RH WIND       PRES   REMARKS
LAKE CHARLES   FAIR      82  75  79 S13G18    29.74F
6HR MIN TEMP:  82; 6HR MAX TEMP:  86; 6HR PCP: TRACE;

LAFAYETTE      PTSUNNY   83  74  74 S14G23    29.78S
6HR MIN TEMP:  83; 6HR MAX TEMP:  88;

PATTERSON      PTSUNNY   81  76  84 SE12      29.81F
6HR MIN TEMP:  81; 6HR MAX TEMP:  86;

SALT POINT     NOT AVBL
NEW IBERIA     PTSUNNY   81  75  82 S18       29.79F
6HR MIN TEMP:  81; 6HR MAX TEMP:  87; 6HR PCP: TRACE;

CHENAULT AIRPK PTSUNNY   81  75  83 S14       29.75F

$$

LAZ027-028-220100-
CENTRAL LOUISIANA

CITY           SKY/WX    TMP DP  RH WIND       PRES   REMARKS
FORT POLK      NOT AVBL
ALEXANDRIA INT PTSUNNY   82  72  71 S15G23    29.72F
6HR MIN TEMP:  82; 6HR MAX TEMP:  88;

ALEXANDRIA     PTSUNNY   82  72  71 S9        29.74S
6HR MIN TEMP:  82; 6HR MAX TEMP:  89;


$$

LAZ001-002-220100-
NORTHWEST LOUISIANA

CITY           SKY/WX    TMP DP  RH WIND       PRES   REMARKS
SHREVEPORT     CLOUDY    72  64  76 CALM      29.68S
6HR MIN TEMP:  67; 6HR MAX TEMP:  89; 6HR PCP:  0.04;

BARKSDALE AFB  NOT AVBL
DTN SHREVEPORT LGT RAIN  72  63  73 CALM      29.69S
6HR MIN TEMP:  67; 6HR MAX TEMP:  88; 6HR PCP:  0.08;


$$

LAZ014-016-220100-
NORTHEAST LOUISIANA

CITY           SKY/WX    TMP DP  RH WIND       PRES   REMARKS
MONROE         PTSUNNY   86  71  60 S9        29.71S
6HR MIN TEMP:  86; 6HR MAX TEMP:  90;

TALLULAH       FAIR      86  68  54 S14       29.76R
6HR MIN TEMP:  86; 6HR MAX TEMP:  89;


$$




USA.gov is the U.S. government's official web portal to all federal, state and local government web resources and services.